Tracking 30918 objects as of 2-Jul-2025
HD Live streaming from Space Station
objects crossing your sky now

STARLINK-5339

Track STARLINK-5339 now!
10-day predictions
STARLINK-5339 is classified as:


NORAD ID: 56510
Int'l Code: 2023-065H
Perigee: 565.5 km
Apogee: 566.9 km
Inclination: 43.0 °
Period: 95.8 minutes
Semi major axis: 6937 km
RCS: Unknown
Launch date: May 14, 2023
Source: United States (US)
Launch site: AIR FORCE EASTERN TEST RANGE (AFETR)
Your satellite tracking list
Your tracking list is empty




NASA's NSSDC Master Catalog

Two Line Element Set (TLE):
1 56510U 23065H   25182.87921300 -.00000363  00000-0 -11832-4 0  9994
2 56510  43.0033 133.4072 0001033 280.7727  79.2999 15.02533138118895
Source of the keplerian elements: AFSPC